EDT,Max TemperatureF,Mean TemperatureF,Min TemperatureF,Max Dew PointF,MeanDew PointF,Min DewpointF,Max Humidity, Mean Humidity, Min Humidity, Max Sea Level PressureIn, Mean Sea Level PressureIn, Min Sea Level PressureIn, Max VisibilityMiles, Mean VisibilityMiles, Min VisibilityMiles, Max Wind SpeedMPH, Mean Wind SpeedMPH, Max Gust SpeedMPH,PrecipitationIn, CloudCover, Events, WindDirDegrees
2014-5-1,50,44,38,47,42,36,96,91,85,30.29,29.91,29.67,10,4,0,16,6,23,0.59,8,Rain,134
2014-5-2,64,53,41,47,44,35,100,70,39,29.75,29.65,29.58,10,6,0,21,5,29,0.02,5,Fog-Rain,230
2014-5-3,63,49,35,40,37,34,92,63,34,29.82,29.77,29.73,10,10,10,15,3,18,T,6,,199
2014-5-4,50,46,42,47,44,39,93,82,71,29.72,29.52,29.44,10,7,2,16,5,20,0.25,8,Rain,164
2014-5-5,61,52,43,43,39,33,92,64,36,29.76,29.65,29.54,10,10,10,24,12,30,T,6,,334
2014-5-6,62,51,40,39,36,28,86,59,31,29.95,29.81,29.75,10,10,10,30,10,36,T,4,Rain,317
2014-5-7,66,51,35,36,31,26,92,58,24,30.14,30.08,29.97,10,10,10,20,6,26,0.00,2,,298
2014-5-8,67,51,34,35,26,14,82,48,13,30.26,30.15,30.10,10,10,10,24,5,30,0.00,2,,350
2014-5-9,65,49,32,40,30,23,82,54,25,30.29,30.21,30.09,10,10,10,20,5,26,T,6,Rain,180
2014-5-10,69,58,47,59,52,41,100,87,73,30.07,29.84,29.67,10,6,2,16,9,16,0.15,8,Rain,189
2014-5-11,73,62,51,52,40,32,96,60,23,29.96,29.82,29.68,10,10,6,21,7,25,0.00,5,,288
2014-5-12,79,63,46,46,41,34,86,54,21,30.22,30.05,29.96,10,10,10,23,7,32,0.00,4,,88
2014-5-13,66,53,40,36,32,26,85,55,24,30.33,30.29,30.22,10,10,10,14,9,14,0.00,4,,104
2014-5-14,57,49,41,45,39,31,86,69,51,30.35,30.33,30.31,10,10,10,18,9,23,0.00,7,Rain,172
2014-5-15,73,60,47,59,50,45,93,75,57,30.32,30.29,30.24,10,7,0,20,9,24,0.00,7,,168
2014-5-16,72,63,53,56,53,51,93,73,53,30.26,30.20,30.14,10,10,8,25,11,35,0.00,6,,173
2014-5-17,61,57,52,55,53,50,100,88,75,30.11,30.02,29.98,10,5,1,24,11,33,0.56,8,Rain,152
2014-5-18,59,55,51,55,52,48,100,88,75,30.09,30.04,29.99,10,4,1,15,6,17,0.74,8,Rain,17
2014-5-19,56,53,49,52,50,46,96,91,86,29.98,29.96,29.93,10,4,2,20,10,23,0.48,8,Rain,338
2014-5-20,64,57,50,54,50,46,93,77,60,29.97,29.95,29.92,10,9,2,22,11,25,0.08,8,Rain,346
2014-5-21,64,58,51,55,51,48,93,77,60,29.99,29.97,29.95,10,10,6,12,6,15,T,8,,355
2014-5-22,71,59,47,52,48,44,96,68,40,29.97,29.92,29.86,10,8,0,15,2,18,0.00,5,Fog,170
2014-5-23,63,54,45,50,47,44,100,82,64,30.00,29.96,29.90,10,7,0,10,1,12,0.00,6,Fog,112
2014-5-24,63,55,47,50,46,44,93,73,52,30.06,30.02,29.98,10,10,7,15,4,19,0.05,7,Rain,165
2014-5-25,69,59,48,48,46,44,86,66,45,30.08,30.03,29.96,10,10,10,14,4,18,0.00,6,,161
2014-5-26,77,64,51,58,52,47,96,72,47,29.94,29.79,29.66,10,10,6,16,9,23,0.05,6,Rain,233
2014-5-27,58,53,47,55,46,40,93,74,55,30.06,29.93,29.81,10,10,6,18,8,24,0.29,7,Rain,43
2014-5-28,61,51,40,45,40,37,93,68,42,30.22,30.12,30.04,10,8,2,15,8,19,0.05,6,Rain,49
2014-5-29,72,54,35,43,36,31,100,63,25,30.25,30.19,30.12,10,8,0,18,1,22,0.00,3,Fog,180
2014-5-30,67,56,44,45,41,37,86,63,40,30.12,30.06,30.00,10,10,10,20,8,24,0.00,5,,183
2014-5-31,72,58,44,45,38,25,93,56,18,30.27,30.19,30.10,10,10,7,16,4,22,0.00,3,,80